Wind_Speed
8 5 20 16 5 4 4 4 5 4 6 6 9 7 15 22 20 24 28 30 32 36 34 36 36 37 38 35 34 32 33 31 33 29 27 25 21 16 15 15 12 11 7 4
4 14 8 6 7 6 7 2 3 5 7 7 7 13 9 16 23 29 31 32 34 32 32 36 40 39 40 38 37 33 33 33 32 30 29 26 23 18 14 15 13 12 9 7
8 6 13 12 6 10 9 10 4 2 4 2 4 3 6 10 17 21 25 28 30 36 38 40 42 44 42 41 40 38 35 35 34 30 29 26 25 23 21 20 16 13 11 9
6 10 14 12 10 11 9 10 12 5 4 4 6 4 6 10 18 19 27 30 32 34 35 38 42 43 47 45 43 41 38 38 37 33 31 30 27 26 27 24 22 18 14 12
8 6 9 9 17 12 7 12 12 8 6 4 3 1 6 12 14 19 25 34 35 38 40 42 45 53 50 46 45 43 39 40 39 38 36 34 32 29 27 28 26 25 22 18
6 4 4 9 10 15 6 3 4 2 5 10 12 8 6 7 15 19 24 33 37 39 41 44 46 48 47 49 46 47 44 42 41 39 37 38 37 32 28 26 30 29 26 23
7 3 2 2 6 8 7 6 2 3 5 12 8 6 15 4 12 17 23 35 41 41 42 43 45 44 47 50 52 49 50 48 45 42 40 37 38 35 30 26 24 29 30 27
4 2 3 6 1 8 9 11 6 7 4 9 5 9 13 14 19 22 27 36 35 38 40 43 49 51 49 51 51 51 50 50 48 47 44 40 38 39 35 29 25 25 26 26
4 5 4 3 2 1 4 14 9 3 1 1 4 8 9 5 7 7 16 24 35 42 43 45 48 51 52 51 52 53 50 49 49 46 47 44 41 40 40 33 27 26 25 24
3 4 2 5 6 8 7 4 3 1 10 8 4 6 7 9 15 9 7 22 33 40 42 41 45 49 52 55 55 54 51 48 47 46 46 45 43 40 41 37 32 29 27 25
2 3 7 5 4 2 5 4 3 4 7 10 3 8 6 7 9 12 13 28 32 38 43 47 51 53 52 51 53 55 54 51 50 49 45 44 44 43 42 40 35 32 29 26
1 4 4 9 6 5 4 3 3 3 6 4 5 11 4 9 8 8 11 28 33 35 42 48 50 49 47 49 51 54 53 52 50 47 47 46 43 44 42 42 37 33 32 30
4 1 3 8 3 4 4 2 4 3 3 7 7 6 7 12 5 12 17 21 31 34 35 38 37 43 48 52 54 53 52 49 47 47 47 47 45 44 42 40 38 36 32 31
3 2 5 5 1 4 5 7 3 2 1 6 6 4 3 9 8 9 16 14 12 16 26 36 39 45 49 53 54 53 50 47 44 46 46 48 46 43 40 39 39 37 35 32
4 3 4 11 13 11 14 18 10 5 9 4 6 5 7 10 9 6 10 12 16 19 23 29 39 46 47 47 50 52 48 46 43 44 45 45 45 45 42 39 39 39 38 35
3 2 1 8 10 14 15 15 13 12 15 13 16 20 6 5 4 12 15 17 17 18 24 35 40 44 49 49 53 52 50 47 43 40 40 39 41 41 41 37 37 39 38 36
4 2 2 6 5 5 7 10 8 10 9 5 5 5 12 4 10 15 17 18 18 19 18 27 43 47 50 52 53 52 51 47 43 39 35 37 38 38 38 38 40 39 38 37
7 5 3 6 6 5 2 8 12 14 13 13 11 14 5 8 11 20 25 22 21 18 13 18 34 46 50 49 50 45 45 45 41 38 37 37 35 36 38 39 39 40 39 38
10 6 3 3 4 5 4 7 7 6 8 12 14 16 18 16 7 19 31 25 22 17 8 12 27 32 35 41 45 44 40 38 42 41 39 37 36 36 35 36 37 36 36 34
7 5 4 3 4 6 6 13 17 13 4 11 16 16 16 13 7 5 27 32 25 20 11 11 23 26 32 35 39 39 38 37 39 37 37 37 36 35 34 32 33 34 35 34
7 4 8 9 4 3 11 24 23 6 3 13 15 19 21 6 6 12 25 30 32 29 24 19 23 28 30 31 31 31 32 35 33 33 33 33 31 30 29 28 28 29 28 28
3 4 4 4 5 5 20 10 7 8 15 12 16 21 23 19 20 21 25 29 32 34 34 31 24 17 21 29 29 28 27 27 28 28 27 27 25 25 26 26 26 26 25 26
2 3 1 3 2 8 14 16 12 9 11 14 18 22 21 18 19 23 23 27 28 29 29 30 31 32 22 19 22 26 26 25 24 23 23 25 23 24 24 24 24 24 24 26
3 6 2 3 2 11 17 6 23 17 13 16 17 18 16 15 16 18 21 21 24 26 27 26 26 28 29 26 23 20 17 15 15 19 23 23 22 25 25 25 25 25 26 27
4 10 7 3 6 21 7 24 23 25 20 14 15 15 13 15 15 16 17 18 17 20 23 23 23 24 24 20 18 18 19 18 19 18 17 15 15 17 19 21 22 23 23 24
12 3 3 3 15 13 17 26 26 21 22 18 18 17 13 16 17 15 12 13 11 15 17 18 18 19 20 18 14 11 9 10 12 13 12 11 10 11 13 15 17 19 21 23
Wind_Direction
173 153 208 197 156 186 187 195 206 231 237 157 213 187 185 179 179 182 187 188 194 202 200 203 211 206 205 205 201 201 200 198 196 197 197 201 205 206 207 208 213 207 196 204
115 220 202 176 182 193 240 243 269 293 267 187 215 232 176 185 200 192 188 191 195 198 200 203 209 211 209 208 207 205 204 201 200 205 205 211 213 213 218 219 219 219 216 221
173 231 170 177 172 197 229 231 218 232 333 230 101 286 159 200 203 206 210 206 197 197 199 202 206 212 213 212 210 209 208 206 204 204 208 213 216 218 222 225 228 234 233 233
229 250 177 183 189 178 220 206 240 231 267 231 153 257 197 192 200 204 207 206 204 203 206 205 207 211 215 218 216 215 214 213 212 212 217 220 221 222 226 233 239 241 244 242
219 200 186 191 215 182 227 173 211 209 226 289 237 196 257 188 204 209 209 209 208 209 207 208 208 216 217 221 220 218 219 218 219 220 223 228 229 231 234 237 238 240 245 247
220 262 208 206 194 198 166 175 160 147 176 238 232 203 241 185 207 215 215 212 209 210 212 216 218 214 215 218 223 222 222 222 223 224 228 232 232 235 237 242 237 239 243 246
340 257 231 228 185 195 163 116 246 228 201 234 199 226 235 217 205 209 206 213 211 210 209 210 214 212 214 217 222 225 225 227 227 228 230 232 233 235 238 244 245 240 242 244
21 218 19 3 269 197 186 171 172 202 195 221 174 223 235 216 232 224 221 217 208 207 209 208 212 218 217 218 218 222 224 226 228 231 232 235 236 235 236 241 245 243 240 239
27 268 337 182 295 357 218 207 177 109 182 6 207 275 285 224 234 209 195 188 198 204 206 209 213 216 218 219 219 220 222 224 227 229 232 233 235 237 236 238 240 242 239 235
179 309 285 300 301 222 195 204 121 303 218 233 255 248 235 191 225 230 181 197 203 207 209 208 211 217 219 222 220 221 224 225 226 227 229 231 234 237 238 238 239 239 239 232
135 117 296 345 207 154 15 219 243 176 186 225 154 248 215 221 220 205 211 215 211 209 211 211 214 217 220 219 220 223 225 227 228 228 230 231 233 236 237 238 239 240 238 235
148 147 268 251 265 342 171 247 9 236 240 241 184 241 230 235 246 239 241 220 226 225 222 217 213 210 209 213 214 219 224 226 229 231 231 232 233 235 237 239 240 240 238 235
169 302 319 309 73 37 75 54 76 242 266 223 204 254 205 262 248 239 253 236 232 229 223 218 208 207 207 214 216 220 223 225 227 230 231 231 232 235 236 239 241 242 240 236
132 183 204 226 323 359 315 300 79 95 308 312 224 247 279 239 249 258 239 259 253 238 238 226 209 209 207 215 218 220 223 225 227 229 231 232 232 235 236 240 242 244 243 239
120 206 277 268 269 266 270 281 291 202 226 219 298 290 268 262 263 294 311 309 294 271 239 228 216 210 206 205 214 219 223 224 225 227 230 233 235 238 239 241 243 246 246 244
36 279 298 287 264 235 250 262 273 246 258 233 250 277 241 310 47 20 358 341 311 292 261 236 226 217 207 206 213 220 220 224 225 226 229 233 235 236 237 239 240 243 244 243
151 200 268 262 283 256 256 234 200 101 34 322 208 284 297 358 43 22 1 351 335 306 285 240 229 220 211 210 214 219 219 221 223 226 230 231 232 232 233 235 238 239 239 240
176 185 229 275 292 212 228 12 92 114 62 18 349 333 349 141 94 36 18 359 352 341 317 247 220 210 210 210 212 207 215 220 223 226 228 230 232 231 233 235 238 240 241 241
169 175 224 250 274 313 269 35 13 333 66 26 355 350 342 304 295 18 14 16 19 11 319 213 205 199 194 199 207 206 214 218 222 224 228 229 228 231 235 237 239 242 244 244
145 135 177 220 247 213 64 352 327 282 84 18 359 349 347 4 66 340 7 29 38 42 63 137 179 192 193 196 203 207 213 217 222 225 228 231 233 238 241 243 243 244 246 250
151 171 216 242 264 279 2 335 320 214 118 346 357 343 341 358 341 345 27 37 40 51 69 105 143 167 182 193 202 206 214 223 229 230 232 235 238 240 241 242 243 245 247 249
127 182 187 213 231 240 15 337 357 323 321 334 338 334 330 353 24 31 36 36 36 40 56 77 98 133 172 183 194 205 216 226 231 234 236 238 239 239 240 241 243 245 247 250
55 302 304 244 328 336 317 320 275 326 325 320 314 325 325 338 15 27 29 36 37 38 47 59 75 87 110 154 185 196 209 220 225 227 233 235 228 237 243 242 238 240 242 246
317 345 274 287 51 319 333 293 330 331 326 313 303 303 324 337 360 15 27 30 35 35 37 46 62 68 77 90 109 133 159 183 195 204 216 228 225 227 229 232 234 236 238 241
335 308 324 300 342 348 100 292 315 329 335 315 299 297 328 337 350 3 17 22 27 29 34 37 46 52 58 68 83 100 117 135 149 154 158 167 183 205 219 227 233 235 237 239
352 321 5 314 303 289 285 319 338 340 326 328 312 301 319 334 338 345 1 13 11 10 19 26 32 39 46 53 58 69 91 123 144 155 159 166 178 190 199 210 220 229 234 238
Height
1470 1480 1474 1471 1477 1478 1480 1481 1481 1474 1468 1472 1476 1478 1480 1484 1490 1492 1497 1500 1504 1507 1514 1520 1524 1529 1534 1538 1542 1546 1550 1555 1560 1563 1567 1570 1573 1577 1580 1582 1583 1585 1586 1588
1474 1472 1467 1473 1477 1479 1481 1484 1486 1476 1467 1472 1473 1474 1478 1482 1480 1483 1488 1493 1497 1505 1511 1515 1519 1524 1529 1534 1539 1543 1547 1552 1557 1561 1565 1569 1572 1575 1579 1581 1583 1584 1585 1588
1468 1462 1464 1470 1477 1483 1484 1486 1485 1482 1469 1466 1471 1480 1480 1479 1483 1487 1488 1491 1495 1497 1502 1508 1513 1517 1523 1528 1534 1538 1544 1549 1554 1559 1563 1566 1570 1573 1576 1579 1581 1582 1584 1587
1463 1455 1458 1465 1471 1474 1491 1474 1476 1480 1483 1488 1469 1501 1478 1473 1475 1478 1480 1484 1488 1492 1498 1503 1508 1513 1516 1521 1529 1535 1540 1545 1551 1556 1559 1563 1566 1569 1573 1577 1580 1582 1583 1585
1458 1454 1460 1464 1461 1466 1469 1466 1474 1477 1483 1479 1475 1489 1471 1465 1472 1470 1470 1474 1480 1484 1489 1494 1499 1503 1509 1517 1522 1529 1536 1541 1547 1551 1555 1559 1563 1567 1570 1574 1578 1580 1582 1584
1450 1447 1450 1451 1453 1459 1460 1467 1472 1476 1482 1489 1475 1482 1473 1467 1458 1457 1461 1466 1470 1476 1481 1487 1493 1499 1505 1512 1517 1524 1529 1535 1541 1546 1551 1554 1559 1563 1567 1570 1573 1576 1579 1581
1460 1449 1445 1448 1454 1453 1459 1476 1500 1505 1494 1483 1471 1478 1449 1443 1442 1441 1447 1453 1459 1465 1472 1479 1487 1492 1497 1503 1508 1515 1522 1528 1534 1540 1545 1549 1554 1559 1563 1566 1569 1572 1575 1577
1482 1463 1452 1454 1451 1454 1458 1465 1489 1505 1502 1479 1473 1474 1441 1435 1436 1436 1438 1442 1450 1457 1464 1469 1475 1482 1488 1494 1500 1506 1513 1520 1527 1533 1538 1544 1549 1553 1558 1562 1565 1568 1570 1573
1488 1472 1456 1454 1453 1453 1452 1457 1454 1476 1478 1485 1470 1455 1432 1428 1430 1431 1434 1439 1442 1446 1452 1457 1465 1472 1480 1486 1492 1497 1505 1512 1519 1525 1532 1537 1543 1548 1552 1556 1561 1564 1567 1570
1484 1487 1461 1457 1449 1443 1448 1445 1465 1478 1483 1488 1471 1458 1443 1431 1425 1426 1431 1432 1434 1438 1443 1451 1457 1462 1470 1476 1484 1491 1497 1504 1511 1518 1524 1530 1535 1541 1546 1551 1555 1559 1563 1566
1482 1487 1471 1460 1453 1452 1455 1451 1448 1449 1458 1462 1480 1452 1428 1424 1418 1420 1420 1422 1425 1430 1434 1438 1443 1450 1458 1468 1476 1482 1489 1496 1503 1510 1517 1523 1528 1534 1540 1544 1549 1554 1559 1562
1484 1491 1489 1471 1450 1453 1458 1457 1461 1460 1460 1458 1454 1440 1413 1414 1414 1415 1415 1414 1416 1418 1421 1428 1434 1442 1451 1458 1465 1472 1480 1487 1494 1502 1509 1515 1521 1527 1532 1537 1542 1548 1553 1557
1484 1491 1492 1465 1458 1459 1461 1462 1471 1472 1470 1450 1450 1444 1412 1411 1410 1409 1410 1411 1412 1415 1419 1422 1432 1438 1443 1447 1455 1462 1470 1478 1486 1494 1501 1508 1513 1519 1524 1530 1536 1542 1547 1551
1481 1491 1489 1482 1475 1478 1470 1463 1466 1471 1476 1463 1436 1428 1414 1411 1409 1405 1406 1406 1409 1412 1413 1416 1423 1426 1434 1438 1444 1453 1461 1470 1478 1486 1493 1499 1505 1511 1517 1523 1529 1535 1540 1544
1485 1492 1487 1477 1472 1473 1469 1461 1457 1466 1462 1466 1440 1433 1421 1412 1408 1405 1405 1406 1405 1405 1410 1411 1413 1418 1427 1434 1439 1446 1454 1462 1470 1478 1485 1491 1498 1505 1511 1516 1522 1527 1532 1537
1489 1493 1489 1479 1465 1464 1460 1449 1444 1445 1444 1449 1445 1434 1420 1413 1407 1407 1406 1402 1400 1400 1401 1403 1404 1408 1416 1425 1430 1435 1445 1453 1462 1470 1477 1484 1491 1497 1502 1509 1514 1519 1523 1527
1492 1494 1489 1483 1464 1459 1451 1432 1430 1441 1445 1439 1435 1428 1419 1416 1412 1412 1410 1403 1398 1391 1392 1392 1393 1397 1404 1412 1422 1426 1434 1446 1455 1463 1471 1476 1483 1488 1495 1501 1505 1510 1514 1519
1490 1492 1491 1479 1470 1454 1432 1427 1427 1437 1436 1441 1439 1431 1418 1415 1413 1412 1408 1404 1396 1385 1378 1379 1383 1389 1395 1404 1415 1425 1432 1441 1450 1457 1463 1470 1475 1481 1487 1493 1497 1502 1507 1511
1478 1485 1481 1476 1467 1447 1434 1440 1444 1445 1436 1440 1439 1432 1423 1412 1411 1408 1408 1403 1390 1384 1380 1377 1382 1389 1398 1404 1411 1420 1428 1437 1444 1450 1457 1463 1469 1476 1481 1486 1491 1497 1501 1504
1473 1475 1478 1466 1467 1439 1439 1445 1446 1444 1438 1440 1440 1434 1427 1412 1419 1420 1409 1399 1392 1389 1381 1378 1382 1390 1397 1404 1409 1416 1424 1430 1436 1443 1450 1457 1464 1470 1474 1480 1485 1489 1493 1496
1471 1474 1473 1469 1458 1444 1451 1447 1443 1436 1445 1442 1441 1438 1433 1427 1426 1420 1412 1405 1401 1394 1385 1381 1383 1389 1396 1402 1408 1414 1420 1424 1431 1439 1445 1452 1458 1463 1467 1473 1477 1481 1485 1488
1462 1464 1462 1463 1459 1444 1452 1450 1446 1450 1443 1441 1440 1439 1436 1429 1423 1417 1412 1408 1403 1398 1391 1388 1387 1392 1400 1404 1407 1412 1418 1423 1429 1435 1441 1446 1452 1456 1461 1466 1470 1474 1477 1480
1461 1464 1457 1462 1457 1453 1450 1449 1453 1449 1443 1440 1441 1439 1437 1429 1422 1419 1415 1411 1409 1407 1404 1403 1400 1400 1400 1404 1409 1413 1416 1421 1426 1432 1437 1443 1448 1450 1455 1459 1463 1466 1469 1471
1465 1464 1458 1454 1455 1452 1448 1450 1447 1442 1440 1438 1439 1439 1435 1429 1424 1421 1417 1414 1413 1412 1410 1408 1405 1405 1406 1409 1412 1414 1417 1420 1424 1429 1434 1437 1441 1445 1449 1452 1455 1458 1460 1463
1469 1463 1459 1453 1449 1447 1450 1453 1444 1439 1437 1437 1438 1437 1432 1427 1424 1422 1420 1418 1417 1416 1414 1414 1414 1414 1415 1417 1418 1420 1421 1424 1425 1427 1430 1433 1437 1441 1444 1446 1449 1452 1455 1458
1470 1467 1464 1459 1458 1457 1451 1440 1433 1432 1431 1433 1433 1432 1429 1425 1423 1423 1421 1421 1419 1419 1420 1420 1421 1423 1422 1423 1423 1425 1426 1426 1427 1428 1430 1432 1435 1438 1441 1443 1445 1447 1449 1451